CW0630 Weather Reports


time (UTC)temp
C
wind
direction
speed
KPH
gust
KPH
rain 1hr
cm
rain 24hr
cm
rain mn
cm
humidity
%
barometer
mb
20260509200858 25 167 8.0 8.0 0.00 0.00 0.00 48 1008.0
20260509190845 25 180 3.2 17.7 0.00 0.00 0.00 49 1008.8
20260509180842 23 182 3.2 8.0 0.00 0.00 0.00 51 1009.6
20260509170849 23 183 4.8 17.7 0.00 0.00 0.00 51 1009.9
20260509160922 23 236 6.4 22.5 0.00 0.03 0.00 53 1010.6
20260509150902 21 170 19.3 19.3 0.00 0.03 0.00 56 1011.3
20260509140845 19 173 9.7 9.7 0.00 0.03 0.00 66 1012.0
20260509130857 17 222 6.4 14.5 0.00 0.03 0.00 71 1012.4
20260509120925 14 173 8.0 8.0 0.00 0.03 0.00 81 1012.6
20260509110852 12 165 1.6 4.8 0.00 0.03 0.00 85 1012.3
20260509100858 11 174 3.2 6.4 0.00 0.03 0.00 84 1012.1
20260509090853 12 168 6.4 9.7 0.00 0.03 0.00 79 1012.3
20260509080853 11 178 1.6 3.2 0.00 0.03 0.00 80 1012.0
20260509070904 12 185 8.0 8.0 0.00 0.03 0.00 73 1012.6
20260509060846 12 177 4.8 6.4 0.00 0.03 0.00 69 1013.6
20260509050851 13 172 6.4 6.4 0.00 0.03 0.00 65 1013.3
20260509040846 13 182 1.6 3.2 0.00 0.03 0.00 60 1013.2
20260509030843 15 186 3.2 4.8 0.00 0.03 0.03 54 1013.6
20260509020859 15 188 3.2 8.0 0.00 0.03 0.03 49 1013.7
20260509010921 16 182 1.6 6.4 0.00 0.03 0.03 47 1013.1
20260509000921 17 178 4.8 6.4 0.00 0.03 0.03 43 1013.0
20260508230858 19 176 9.7 9.7 0.00 0.03 0.03 39 1012.4
20260508220846 20 186 4.8 6.4 0.00 0.03 0.03 35 1012.6
20260508210853 21 178 9.7 20.9 0.00 0.03 0.03 32 1012.5